This demonstration page uses our WeatherBlox Daily Observations layout. Learn more.

Left ArrowRight Arrow

Hourly Observations for June 24, 2017

Temp ( °F °C ) Dew Point ( °F °C ) Humidity (%) Winds ( mph kmh ) Pressure ( in mb ) Visibility ( mi km ) Precip ( " mm )
12:07 am 00:07 Clear 64 18 61 16 88 88 WSW 5 7 29.88 1012 10 16 N/A
12:27 am 00:27 Clear 64 18 61 16 88 88 SW 5 7 29.88 1012 10 16 N/A
12:47 am 00:47 Clear 64 18 61 16 88 88 SW 6 9 29.88 1012 10 16 N/A
1:07 am 01:07 Clear 64 18 61 16 88 88 SW 5 7 29.88 1012 10 16 N/A
1:27 am 01:27 Clear 64 18 61 16 88 88 SW 6 9 29.88 1012 10 16 N/A
1:46 am 01:46 Partly Cloudy 64 18 61 16 88 88 WSW 7 11 29.88 1012 10 16 N/A
2:07 am 02:07 Clear 63 17 61 16 94 94 WSW 8 13 29.88 1012 10 16 N/A
2:27 am 02:27 Clear 63 17 61 16 94 94 WSW 8 13 29.88 1012 10 16 N/A
2:46 am 02:46 Clear 63 17 61 16 94 94 WSW 7 11 29.88 1012 10 16 N/A
3:07 am 03:07 Clear 63 17 61 16 94 94 WSW 6 9 29.88 1012 10 16 N/A
3:27 am 03:27 Clear 63 17 59 15 88 88 W 8 13 29.88 1012 10 16 N/A
3:47 am 03:47 Clear 63 17 59 15 88 88 W 7 11 29.88 1012 10 16 N/A
4:07 am 04:07 Clear 63 17 59 15 88 88 W 8 13 29.88 1012 10 16 N/A
4:26 am 04:26 Clear 63 17 59 15 88 88 W 8 13 29.91 1013 10 16 N/A
4:47 am 04:47 Clear 61 16 57 14 88 88 W 7 11 29.91 1013 10 16 N/A
5:07 am 05:07 Clear 61 16 57 14 88 88 WNW 8 13 29.91 1013 10 16 N/A
5:27 am 05:27 Clear 61 16 57 14 88 88 W 7 11 29.91 1013 10 16 N/A
5:47 am 05:47 Clear 61 16 57 14 88 88 WNW 8 13 29.91 1013 10 16 N/A
6:07 am 06:07 Clear 61 16 57 14 88 88 WNW 10 17 29.91 1013 10 16 N/A
6:27 am 06:27 Sunny 61 16 55 13 83 83 WNW 7 11 29.94 1014 10 16 N/A
6:47 am 06:47 Sunny 59 15 55 13 88 88 WNW 7 11 29.94 1014 10 16 N/A
7:06 am 07:06 Sunny 61 16 55 13 83 83 WNW 6 9 29.94 1014 10 16 N/A
7:27 am 07:27 Sunny 61 16 57 14 88 88 WNW 6 9 29.94 1014 10 16 N/A
7:47 am 07:47 Sunny 63 17 57 14 83 83 WNW 6 9 29.97 1015 10 16 N/A
8:06 am 08:06 Sunny 63 17 57 14 83 83 W 6 9 29.97 1015 10 16 N/A
8:27 am 08:27 Sunny 64 18 57 14 78 78 WNW 8 13 29.97 1015 10 16 N/A
8:47 am 08:47 Sunny 64 18 57 14 78 78 NW 8 13 29.97 1015 10 16 N/A
9:07 am 09:07 Sunny 66 19 57 14 73 73 WNW 8 13 29.97 1015 10 16 N/A
9:27 am 09:27 Sunny 66 19 59 15 78 78 NW 7 11 30.00 1016 10 16 N/A
9:47 am 09:47 Sunny 68 20 59 15 73 73 WNW 7 11 30.00 1016 10 16 N/A
10:07 am 10:07 Sunny 68 20 59 15 73 73 WNW 7 11 30.00 1016 10 16 N/A
10:27 am 10:27 Sunny 70 21 59 15 69 69 WNW 6 9 29.97 1015 10 16 N/A
10:46 am 10:46 Sunny 70 21 57 14 64 64 WNW 6 9 29.97 1015 10 16 N/A
11:07 am 11:07 Sunny 72 22 57 14 61 61 WNW 3 6 29.97 1015 10 16 N/A
11:27 am 11:27 Sunny 72 22 57 14 61 61 WSW 10 17 29.97 1015 10 16 N/A
11:47 am 11:47 Sunny 72 22 57 14 61 61 WNW 10 17 29.97 1015 10 16 N/A
12:07 pm 12:07 Sunny 73 23 55 13 53 53 W 9 15 29.97 1015 10 16 N/A
12:27 pm 12:27 Partly Cloudy 73 23 57 14 57 57 W 14 22 29.97 1015 10 16 N/A
12:47 pm 12:47 Partly Cloudy 75 24 57 14 54 54 W 13 20 29.97 1015 10 16 N/A
1:07 pm 13:07 Partly Cloudy 73 23 57 14 57 57 W 15 24 30.00 1016 10 16 N/A
1:26 pm 13:26 Partly Cloudy 73 23 57 14 57 57 W 17 28 30.00 1016 10 16 N/A
1:47 pm 13:47 Partly Cloudy 75 24 55 13 50 50 W 16 26 30.00 1016 10 16 N/A
2:07 pm 14:07 Partly Cloudy 75 24 57 14 54 54 W 15 24 30.00 1016 10 16 N/A
2:27 pm 14:27 Partly Cloudy 75 24 55 13 50 50 W 16 26 30.00 1016 10 16 N/A
2:47 pm 14:47 Partly Cloudy 75 24 57 14 54 54 W 14 22 30.00 1016 10 16 N/A
3:07 pm 15:07 Mostly Cloudy 75 24 57 14 54 54 W 16 26 30.00 1016 10 16 N/A
3:27 pm 15:27 Partly Cloudy 75 24 57 14 54 54 W 16 26 30.00 1016 10 16 N/A
3:47 pm 15:47 Partly Cloudy 75 24 57 14 54 54 W 17 28 30.00 1016 10 16 N/A
4:07 pm 16:07 Sunny 75 24 55 13 50 50 W 13 20 30.00 1016 10 16 N/A
4:27 pm 16:27 Partly Cloudy 75 24 55 13 50 50 W 15 24 30.00 1016 10 16 N/A
4:47 pm 16:47 Partly Cloudy 75 24 55 13 50 50 WNW 20 31 30.00 1016 10 16 N/A
5:06 pm 17:06 Partly Cloudy 73 23 54 12 50 50 W 14 22 30.00 1016 10 16 N/A
5:27 pm 17:27 Partly Cloudy 75 24 54 12 47 47 W 16 26 30.00 1016 10 16 N/A
5:47 pm 17:47 Partly Cloudy 75 24 54 12 47 47 WNW 18 30 30.00 1016 10 16 N/A
6:07 pm 18:07 Partly Cloudy 75 24 52 11 44 44 W 17 28 30.00 1016 10 16 N/A
6:27 pm 18:27 Sunny 73 23 52 11 47 47 W 16 26 30.00 1016 10 16 N/A
6:46 pm 18:46 Partly Cloudy 75 24 50 10 41 41 WNW 17 28 30.00 1016 10 16 N/A
7:07 pm 19:07 Sunny 73 23 50 10 44 44 WNW 16 26 30.00 1016 10 16 N/A
7:27 pm 19:27 Partly Cloudy 72 22 52 11 50 50 WNW 12 19 30.00 1016 10 16 N/A
7:47 pm 19:47 Partly Cloudy 72 22 50 10 47 47 WNW 17 28 30.00 1016 10 16 N/A
8:07 pm 20:07 Sunny 72 22 48 9 44 44 NW 14 22 30.03 1017 10 16 N/A
8:27 pm 20:27 Sunny 70 21 46 8 43 43 WNW 13 20 30.06 1018 10 16 N/A
8:47 pm 20:47 Sunny 68 20 46 8 46 46 NW 13 20 30.06 1018 10 16 N/A
9:07 pm 21:07 Sunny 66 19 48 9 52 52 WNW 8 13 30.06 1018 10 16 N/A
9:27 pm 21:27 Clear 64 18 50 10 60 60 W 5 7 30.09 1019 10 16 N/A
9:47 pm 21:47 Partly Cloudy 63 17 52 11 68 68 W 5 7 30.09 1019 10 16 N/A
10:07 pm 22:07 Partly Cloudy 63 17 52 11 68 68 WSW 5 7 30.09 1019 10 16 N/A
10:27 pm 22:27 Partly Cloudy 63 17 54 12 73 73 WSW 6 9 30.12 1020 10 16 N/A
10:47 pm 22:47 Partly Cloudy 63 17 52 11 68 68 W 8 13 30.12 1020 10 16 N/A
11:07 pm 23:07 Clear 64 18 50 10 60 60 WNW 10 17 30.12 1020 10 16 N/A
11:27 pm 23:27 Clear 63 17 48 9 59 59 WNW 7 11 30.12 1020 10 16 N/A
11:47 pm 23:47 Clear 61 16 50 10 68 68 W 6 9 30.12 1020 10 16 N/A

Powered by AerisWeather